AirNav   Pilot Hours Calculator
 
 1132 users online  

94C Gilbert Field Airport
Rio, Wisconsin, USA

GOING TO RIO?


FAA INFORMATION EFFECTIVE 16 JUNE 2022

Location

FAA Identifier: 94C
Lat/Long: 43-26-59.9470N 089-15-00.4170W
43-26.999117N 089-15.006950W
43.4499853,-89.2501158
(estimated)
Elevation: 925 ft. / 281.9 m (surveyed)
Variation: 00W (1985)
From city: 1 mile W of RIO, WI
Time zone: UTC -5 (UTC -6 during Standard Time)
Zip code: 53960

Airport Operations

Airport use: Open to the public
Activation date: 08/1963
Control tower: no
ARTCC: CHICAGO CENTER
FSS: GREEN BAY FLIGHT SERVICE STATION
NOTAMs facility: GRB (NOTAM-D service available)
Attendance: UNATNDD
Wind indicator: yes
Segmented circle: no

Airport Communications

CTAF: 122.9
WX ASOS at MSN (19 nm S): PHONE 608-249-0615

Airport Services

Parking: tiedowns
Airframe service: NONE
Powerplant service: NONE
Bottled oxygen: NONE
Bulk oxygen: NONE

Runway Information

Runway 9/27

Dimensions: 1092 x 65 ft. / 333 x 20 m
Surface: turf, in fair condition
Runway edge markings: 09/27 THLDS MKD WITH ORANGE CONES.
RUNWAY 9  RUNWAY 27
Latitude: 43-27.099000N43-27.099000N
Longitude: 089-15.389833W089-15.107333W
Elevation: 940.0 ft.940.0 ft.
Traffic pattern: leftleft
Runway end identifier lights: nono
Obstructions: 76 ft. trees, 840 ft. from runway, 175 ft. left of centerline, 11:1 slope to clear65 ft. tree, 585 ft. from runway, 150 ft. left of centerline, 9:1 slope to clear

Airport Ownership and Management from official FAA records

Ownership: Privately-owned
Owner: RIO AERO CLUB, INC
5019 HWY 116
RIO, WI 53960
Phone 920-214-5917
Manager: TODD ROAT
PO BOX 184
RIO, WI 53960
Phone 920-214-5917
EMAIL ADDRESS: RIOAEROCLUB@GMAIL.COM

Airport Operational Statistics

Aircraft based on the field: 10
Single engine airplanes: 8
Ultralights: 2
    
Aircraft operations: avg 111/week *
65% local general aviation
34% transient general aviation
<1% military
* for 12-month period ending 17 June 2020

Additional Remarks

CFM WINTER RWY CONDS & SN REMOVAL CALL 920-214-5917.
FOR CD CTC CHICAGO ARTCC AT 630-906-8921.

Instrument Procedures

There are no published instrument procedures at 94C.

Some nearby airports with instrument procedures:

C47 - Portage Municipal Airport (12 nm NW)
KMSN - Dane County Regional Airport-Truax Field (19 nm S)
87Y - Blackhawk Airfield (21 nm S)
KDLL - Baraboo/Wisconsin Dells Regional Airport (23 nm W)
C29 - Middleton Municipal Airport - Morey Field (24 nm SW)
 
Loc | Ops | Rwys | IFR | FBO | Links
Com | Nav | Svcs | Stats | Notes
Area around 94C (Gilbert Field Airport)
 
Road maps at: MapQuest Bing Google
 
Aerial photo
WARNING: Photo may not be current or correct
Aerial photo of 94C (Gilbert Field Airport)
Photo taken 24-Apr-2018
looking south.

Do you have a better or more recent aerial photo of Gilbert Field Airport that you would like to share? If so, please send us your photo.

 
Sectional chart

 
Airport distance calculator
Flying to Gilbert Field Airport? Find the distance to fly.

From to 94C

Sunrise and sunset
Times for 29-Jun-2022
 Local
(UTC-5)
 Zulu
(UTC)
Morning civil twilight04:4409:44
Sunrise05:2010:20
Sunset20:4101:41
Evening civil twilight21:1702:17

Current date and time
Zulu (UTC)  30-Jun-2022 01:39:08
Local (UTC-5)  29-Jun-2022 20:39:08
 
METAR
KMSN 
19nm S 
300053Z 18006KT 10SM FEW250 28/14 A3007 RMK AO2 SLP176 T02830139
KDLL 
23nm W 
300115Z AUTO 19007KT 10SM CLR 25/14 A3006 RMK AO2 T02500144
KC29 
24nm SW 
300115Z AUTO 18006KT 10SM CLR 28/14 A3008 RMK AO1 T02750138
KUNU 
24nm E 
300115Z AUTO 11008KT 10SM CLR 22/17 A3011 RMK AO2 T02160173
KC35 
32nm W 
300115Z AUTO 15004KT 10SM CLR 26/15 A3005 RMK AO2 T02610150 PWINO
KY50 
36nm N 
300056Z AUTO 12005KT CLR 24/16 A3006 RMK AO2 SLP173 T02440161 PWINO $
KFLD 
38nm NE 
300053Z AUTO 15011KT 10SM CLR 24/16 A3010 RMK AO2 SLP189 T02390161
TAF
KMSN 
19nm S 
291955Z 2920/3018 16005KT P6SM FEW250 FM300800 20009KT P6SM FEW250 WS020/23040KT FM301300 21012G25KT P6SM FEW250
NOTAMs
Click for the latest NOTAMs
NOTAMs are issued by the DoD/FAA and will open in a separate window not controlled by AirNav.

 

 
 

Would you like to see your business listed on this page?

 If your business provides an interesting product or service to pilots, flight crews, aircraft, or users of the Gilbert Field Airport, you should consider listing it here.  To start the listing process, click on the button below
 
Add a business
 

Other Pages about Gilbert Field Airport

Page from the Wisconsin airport directory (PDF)
 
Update a link
 
Copyright © AirNav, LLC. All rights reserved. Privacy Policy  Contact